CEB701 RPMD-RPVE

Flight info

Callsign CEB701
Flight time 1h 3m
Altitude 35000
Route JOFE3R JOFER W8 MCT W6A ROX TR15 KLO KLO7A
Aircraft A321/M-VGDW/C

Departure

Time 2026-05-05 00:56
Airport Francisco Bangoy International Airport (RPMD)

Arrival

Time 2026-05-05 01:59
Airport Godofredo P. Ramos Airport (RPVE)
Time Latitude Longitude Altitude Speed Heading
2026-05-05 00:43 7.12951 125.64552 106 ft 0 kts 319°
2026-05-05 00:45 7.12950 125.64553 106 ft 0 kts 319°
2026-05-05 00:45 7.12939 125.64562 105 ft 2 kts 317°
2026-05-05 00:45 7.12928 125.64572 104 ft 2 kts 319°
2026-05-05 00:45 7.12917 125.64582 103 ft 2 kts 318°
2026-05-05 00:46 7.12905 125.64592 102 ft 1 kts 319°
2026-05-05 00:46 7.12898 125.64600 101 ft 2 kts 297°
2026-05-05 00:46 7.12894 125.64614 101 ft 2 kts 273°
2026-05-05 00:46 7.12895 125.64629 101 ft 2 kts 248°
2026-05-05 00:47 7.12900 125.64638 101 ft 0 kts 232°
2026-05-05 00:47 7.12905 125.64644 101 ft 0 kts 229°
2026-05-05 00:49 7.12898 125.64636 101 ft 3 kts 230°
2026-05-05 00:49 7.12868 125.64601 99 ft 9 kts 230°
2026-05-05 00:50 7.12816 125.64539 97 ft 13 kts 230°
2026-05-05 00:50 7.12758 125.64474 95 ft 4 kts 224°
2026-05-05 00:50 7.12749 125.64465 95 ft 5 kts 219°
2026-05-05 00:50 7.12727 125.64452 94 ft 7 kts 200°
2026-05-05 00:51 7.12660 125.64484 90 ft 13 kts 139°
2026-05-05 00:51 7.12598 125.64539 88 ft 13 kts 139°
2026-05-05 00:51 7.12527 125.64546 86 ft 12 kts 225°
2026-05-05 00:51 7.12439 125.64447 87 ft 15 kts 230°
2026-05-05 00:52 7.12389 125.64387 88 ft 17 kts 230°
2026-05-05 00:52 7.12308 125.64292 91 ft 18 kts 230°
2026-05-05 00:52 7.12190 125.64150 95 ft 20 kts 231°
2026-05-05 00:52 7.12123 125.64072 96 ft 21 kts 228°
2026-05-05 00:53 7.12016 125.63951 98 ft 23 kts 229°
2026-05-05 00:53 7.11909 125.63827 103 ft 23 kts 229°
2026-05-05 00:53 7.11801 125.63705 107 ft 22 kts 230°
2026-05-05 00:53 7.11741 125.63602 109 ft 15 kts 254°
2026-05-05 00:54 7.11708 125.63568 111 ft 4 kts 146°
2026-05-05 00:54 7.11711 125.63599 109 ft 0 kts 49°
2026-05-05 00:55 7.11770 125.63668 108 ft 44 kts 49°
2026-05-05 00:55 7.12148 125.64109 96 ft 118 kts 48°
2026-05-05 00:56 7.12817 125.64885 159 ft 166 kts 48°
2026-05-05 00:56 7.13561 125.65771 770 ft 164 kts 48°
2026-05-05 00:56 7.14313 125.66556 1529 ft 154 kts 32°
2026-05-05 00:56 7.15664 125.66705 2149 ft 153 kts 351°
2026-05-05 00:57 7.16385 125.66561 2321 ft 161 kts 349°
2026-05-05 00:57 7.17547 125.66319 2587 ft 174 kts 350°
2026-05-05 00:57 7.19228 125.66019 2952 ft 192 kts 352°
2026-05-05 00:57 7.20142 125.65874 3142 ft 202 kts 353°
2026-05-05 00:58 7.21621 125.65659 3320 ft 226 kts 353°
2026-05-05 00:58 7.23250 125.65433 3678 ft 243 kts 353°
2026-05-05 00:58 7.24975 125.65200 4042 ft 260 kts 353°
2026-05-05 00:58 7.26810 125.64954 4566 ft 270 kts 353°
2026-05-05 00:59 7.28690 125.64703 5278 ft 272 kts 354°
2026-05-05 00:59 7.30570 125.64451 5993 ft 274 kts 354°
2026-05-05 00:59 7.32462 125.64201 6670 ft 276 kts 354°
2026-05-05 00:59 7.34383 125.63947 7307 ft 280 kts 354°
2026-05-05 01:00 7.36336 125.63686 7932 ft 283 kts 354°
2026-05-05 01:00 7.38300 125.63427 8539 ft 286 kts 354°
2026-05-05 01:00 7.40307 125.63161 9136 ft 289 kts 354°
2026-05-05 01:00 7.42315 125.62895 9717 ft 292 kts 354°
2026-05-05 01:01 7.44323 125.62627 10248 ft 296 kts 353°
2026-05-05 01:01 7.46381 125.62077 10526 ft 313 kts 338°
2026-05-05 01:01 7.48304 125.60963 10790 ft 328 kts 324°
2026-05-05 01:01 7.50155 125.59511 11043 ft 342 kts 322°
2026-05-05 01:02 7.52031 125.57974 11277 ft 355 kts 321°
2026-05-05 01:02 7.53983 125.56374 11491 ft 368 kts 322°
2026-05-05 01:02 7.56013 125.54723 11743 ft 379 kts 322°
2026-05-05 01:02 7.58090 125.53044 12159 ft 384 kts 322°
2026-05-05 01:03 7.60182 125.51359 12641 ft 386 kts 322°
2026-05-05 01:03 7.62327 125.49635 13132 ft 388 kts 322°
2026-05-05 01:03 7.64466 125.47918 13584 ft 391 kts 322°
2026-05-05 01:03 7.66594 125.46214 14002 ft 394 kts 322°
2026-05-05 01:04 7.68771 125.44471 14428 ft 397 kts 322°
2026-05-05 01:04 7.73159 125.40954 15240 ft 402 kts 322°
2026-05-05 01:04 7.75365 125.39181 15634 ft 405 kts 322°
2026-05-05 01:05 7.77597 125.37387 15993 ft 408 kts 322°
2026-05-05 01:05 7.79802 125.35616 16349 ft 411 kts 322°
2026-05-05 01:05 7.82072 125.33785 16699 ft 413 kts 322°
2026-05-05 01:05 7.84335 125.31950 17035 ft 416 kts 322°
2026-05-05 01:06 7.86595 125.30122 17361 ft 418 kts 322°
2026-05-05 01:06 7.88891 125.28269 17675 ft 420 kts 322°
2026-05-05 01:06 7.91166 125.26437 18003 ft 422 kts 322°
2026-05-05 01:06 7.93496 125.24564 18345 ft 423 kts 323°
2026-05-05 01:07 7.95849 125.22797 18643 ft 424 kts 326°
2026-05-05 01:07 7.98338 125.21175 18953 ft 424 kts 330°
2026-05-05 01:07 8.00943 125.19717 19274 ft 425 kts 334°
2026-05-05 01:07 8.03551 125.18353 19578 ft 426 kts 334°
2026-05-05 01:08 8.06221 125.16971 19869 ft 427 kts 334°
2026-05-05 01:08 8.08857 125.15606 20165 ft 428 kts 334°
2026-05-05 01:08 8.11534 125.14218 20467 ft 429 kts 334°
2026-05-05 01:08 8.14178 125.12851 20753 ft 430 kts 334°
2026-05-05 01:09 8.16891 125.11444 21047 ft 431 kts 334°
2026-05-05 01:09 8.19531 125.10070 21317 ft 432 kts 334°
2026-05-05 01:09 8.22221 125.08669 21576 ft 434 kts 334°
2026-05-05 01:09 8.24930 125.07256 21830 ft 435 kts 334°
2026-05-05 01:10 8.27605 125.05859 22110 ft 435 kts 334°
2026-05-05 01:10 8.30316 125.04445 22385 ft 436 kts 334°
2026-05-05 01:10 8.33034 125.03027 22621 ft 438 kts 334°
2026-05-05 01:10 8.35723 125.01627 22846 ft 440 kts 334°
2026-05-05 01:11 8.38492 125.00185 23083 ft 441 kts 334°
2026-05-05 01:11 8.41215 124.98767 23324 ft 442 kts 334°
2026-05-05 01:11 8.43990 124.97321 23569 ft 443 kts 334°
2026-05-05 01:11 8.46751 124.95879 23814 ft 444 kts 334°
2026-05-05 01:12 8.49513 124.94438 24039 ft 446 kts 334°
2026-05-05 01:12 8.52299 124.92982 24253 ft 448 kts 334°
2026-05-05 01:12 8.55055 124.91541 24468 ft 449 kts 334°
2026-05-05 01:12 8.57857 124.90076 24676 ft 451 kts 334°
2026-05-05 01:13 8.60654 124.88614 24880 ft 452 kts 334°
2026-05-05 01:13 8.63446 124.87153 25079 ft 454 kts 333°
2026-05-05 01:13 8.66250 124.85685 25274 ft 455 kts 334°
2026-05-05 01:13 8.69106 124.84190 25467 ft 457 kts 333°
2026-05-05 01:14 8.71933 124.82708 25658 ft 458 kts 333°
2026-05-05 01:14 8.74760 124.81225 25857 ft 459 kts 333°
2026-05-05 01:14 8.77593 124.79739 26049 ft 461 kts 333°
2026-05-05 01:14 8.80442 124.78248 26233 ft 462 kts 333°
2026-05-05 01:15 8.83311 124.76751 26411 ft 463 kts 333°
2026-05-05 01:15 8.86179 124.75253 26574 ft 464 kts 333°
2026-05-05 01:15 8.89086 124.73733 26743 ft 466 kts 333°
2026-05-05 01:15 8.91960 124.72228 26912 ft 467 kts 333°
2026-05-05 01:16 8.94834 124.70721 27071 ft 468 kts 333°
2026-05-05 01:16 8.97736 124.69198 27227 ft 470 kts 333°
2026-05-05 01:16 9.00666 124.67660 27381 ft 471 kts 333°
2026-05-05 01:16 9.03584 124.66132 27563 ft 471 kts 333°
2026-05-05 01:17 9.06526 124.64595 27803 ft 471 kts 333°
2026-05-05 01:17 9.09425 124.63081 28042 ft 470 kts 333°
2026-05-05 01:17 9.12362 124.61547 28281 ft 469 kts 333°
2026-05-05 01:17 9.15251 124.60042 28523 ft 469 kts 333°
2026-05-05 01:18 9.18180 124.58513 28774 ft 468 kts 333°
2026-05-05 01:18 9.21085 124.56992 29025 ft 467 kts 333°
2026-05-05 01:18 9.23982 124.55475 29265 ft 467 kts 333°
2026-05-05 01:18 9.26850 124.53970 29493 ft 467 kts 333°
2026-05-05 01:19 9.29771 124.52434 29732 ft 467 kts 333°
2026-05-05 01:19 9.32659 124.50916 29966 ft 467 kts 333°
2026-05-05 01:19 9.35523 124.49410 30201 ft 467 kts 333°
2026-05-05 01:19 9.38448 124.47871 30448 ft 467 kts 333°
2026-05-05 01:20 9.41346 124.46346 30705 ft 466 kts 333°
2026-05-05 01:20 9.44234 124.44827 30955 ft 466 kts 333°
2026-05-05 01:20 9.47120 124.43305 31202 ft 466 kts 332°
2026-05-05 01:20 9.50002 124.41785 31459 ft 466 kts 332°
2026-05-05 01:21 9.53851 124.39756 31792 ft 465 kts 332°
2026-05-05 01:21 9.55752 124.38754 31966 ft 465 kts 332°
2026-05-05 01:21 9.58615 124.37250 32329 ft 462 kts 332°
2026-05-05 01:21 9.61504 124.35738 32679 ft 460 kts 332°
2026-05-05 01:22 9.64342 124.34248 33058 ft 458 kts 332°
2026-05-05 01:22 9.67182 124.32741 33405 ft 457 kts 332°
2026-05-05 01:22 9.69985 124.31251 33672 ft 457 kts 332°
2026-05-05 01:22 9.72794 124.29762 33918 ft 458 kts 332°
2026-05-05 01:23 9.76580 124.27762 34231 ft 460 kts 332°
2026-05-05 01:23 9.79466 124.26238 34365 ft 463 kts 332°
2026-05-05 01:23 9.81343 124.25248 34541 ft 462 kts 332°
2026-05-05 01:23 9.84240 124.23720 34815 ft 462 kts 332°
2026-05-05 01:24 9.87092 124.22214 34936 ft 464 kts 332°
2026-05-05 01:24 9.89985 124.20688 34929 ft 464 kts 332°
2026-05-05 01:24 9.95746 124.17650 34920 ft 463 kts 332°
2026-05-05 01:25 10.01512 124.14610 34907 ft 466 kts 332°
2026-05-05 01:25 10.07292 124.11559 34902 ft 465 kts 332°
2026-05-05 01:26 10.13025 124.08536 34899 ft 464 kts 332°
2026-05-05 01:26 10.18855 124.05463 34898 ft 467 kts 332°
2026-05-05 01:27 10.24652 124.02396 34892 ft 466 kts 332°
2026-05-05 01:27 10.30293 123.98950 34889 ft 468 kts 325°
2026-05-05 01:28 10.35537 123.94855 34891 ft 468 kts 318°
2026-05-05 01:28 10.40347 123.90334 34891 ft 468 kts 316°
2026-05-05 01:29 10.45127 123.85731 34899 ft 468 kts 316°
2026-05-05 01:29 10.49874 123.81172 34906 ft 468 kts 316°
2026-05-05 01:30 10.54664 123.76579 34903 ft 468 kts 316°
2026-05-05 01:30 10.59448 123.71990 34902 ft 467 kts 316°
2026-05-05 01:31 10.64227 123.67419 34893 ft 467 kts 316°
2026-05-05 01:31 10.69017 123.62847 34889 ft 467 kts 316°
2026-05-05 01:32 10.73778 123.58292 34884 ft 467 kts 316°
2026-05-05 01:32 10.78526 123.53741 34885 ft 467 kts 316°
2026-05-05 01:33 10.83275 123.49184 34882 ft 467 kts 316°
2026-05-05 01:33 10.87997 123.44649 34885 ft 466 kts 316°
2026-05-05 01:34 10.92783 123.40054 34888 ft 467 kts 316°
2026-05-05 01:34 10.97526 123.35493 34885 ft 466 kts 316°
2026-05-05 01:35 11.02258 123.30917 34882 ft 466 kts 315°
2026-05-05 01:35 11.06985 123.26363 34883 ft 466 kts 316°
2026-05-05 01:36 11.12482 123.21084 34883 ft 466 kts 316°
2026-05-05 01:36 11.16445 123.17291 34883 ft 466 kts 316°
2026-05-05 01:37 11.21173 123.12748 34888 ft 467 kts 316°
2026-05-05 01:37 11.25899 123.08192 34896 ft 467 kts 316°
2026-05-05 01:38 11.30629 123.03623 34898 ft 466 kts 316°
2026-05-05 01:38 11.35338 122.99075 34899 ft 466 kts 316°
2026-05-05 01:39 11.40039 122.94544 34171 ft 458 kts 316°
2026-05-05 01:39 11.42352 122.92314 32888 ft 464 kts 316°
2026-05-05 01:39 11.44710 122.90037 31568 ft 470 kts 316°
2026-05-05 01:40 11.47058 122.87769 30576 ft 468 kts 316°
2026-05-05 01:40 11.49415 122.85488 29553 ft 467 kts 316°
2026-05-05 01:40 11.51797 122.83181 28358 ft 470 kts 316°
2026-05-05 01:40 11.54189 122.80864 27090 ft 474 kts 316°
2026-05-05 01:41 11.56568 122.78551 26060 ft 471 kts 315°
2026-05-05 01:41 11.58634 122.76011 25300 ft 462 kts 303°
2026-05-05 01:41 11.60122 122.73171 24510 ft 455 kts 292°
2026-05-05 01:41 11.61062 122.70091 23638 ft 451 kts 284°
2026-05-05 01:42 11.61760 122.67045 22782 ft 447 kts 282°
2026-05-05 01:42 11.62441 122.63927 21927 ft 442 kts 283°
2026-05-05 01:42 11.63114 122.60923 21136 ft 438 kts 283°
2026-05-05 01:42 11.63800 122.57940 20333 ft 434 kts 283°
2026-05-05 01:43 11.64499 122.54933 19515 ft 429 kts 283°
2026-05-05 01:43 11.65190 122.51973 18708 ft 425 kts 283°
2026-05-05 01:43 11.65874 122.49033 17906 ft 421 kts 283°
2026-05-05 01:43 11.66535 122.46188 17133 ft 417 kts 283°
2026-05-05 01:44 11.67203 122.43310 16368 ft 413 kts 283°
2026-05-05 01:44 11.67917 122.40513 15619 ft 408 kts 288°
2026-05-05 01:44 11.69038 122.37851 14862 ft 403 kts 299°
2026-05-05 01:44 11.70553 122.35481 14127 ft 397 kts 308°
2026-05-05 01:45 11.72255 122.33282 13396 ft 392 kts 309°
2026-05-05 01:45 11.73942 122.31163 12677 ft 388 kts 310°
2026-05-05 01:45 11.75643 122.29024 11934 ft 384 kts 310°
2026-05-05 01:45 11.77317 122.26913 11280 ft 381 kts 309°
2026-05-05 01:46 11.78961 122.24830 10895 ft 373 kts 309°
2026-05-05 01:46 11.80583 122.22770 10697 ft 360 kts 309°
2026-05-05 01:46 11.82112 122.20824 10504 ft 349 kts 309°
2026-05-05 01:46 11.83619 122.18904 10318 ft 338 kts 310°
2026-05-05 01:47 11.85066 122.17061 10140 ft 327 kts 310°
2026-05-05 01:47 11.86480 122.15258 9964 ft 317 kts 310°
2026-05-05 01:47 11.87837 122.13528 9788 ft 307 kts 310°
2026-05-05 01:47 11.89181 122.11813 9496 ft 303 kts 310°
2026-05-05 01:48 11.90484 122.10152 9126 ft 301 kts 310°
2026-05-05 01:48 11.91802 122.08472 8755 ft 300 kts 310°
2026-05-05 01:48 11.93105 122.06809 8383 ft 298 kts 310°
2026-05-05 01:48 11.94394 122.05165 8019 ft 296 kts 310°
2026-05-05 01:49 11.95689 122.03513 7652 ft 295 kts 310°
2026-05-05 01:49 11.96962 122.01888 7289 ft 293 kts 310°
2026-05-05 01:49 11.98230 122.00270 6927 ft 291 kts 310°
2026-05-05 01:49 11.99502 121.98646 6572 ft 289 kts 310°
2026-05-05 01:50 12.00747 121.97055 6250 ft 285 kts 311°
2026-05-05 01:50 12.01988 121.95470 6133 ft 286 kts 311°
2026-05-05 01:50 12.03138 121.93819 5945 ft 281 kts 297°
2026-05-05 01:50 12.03534 121.91900 5659 ft 280 kts 267°
2026-05-05 01:51 12.02998 121.89998 5312 ft 278 kts 238°
2026-05-05 01:51 12.01900 121.88366 4959 ft 276 kts 232°
2026-05-05 01:51 12.00737 121.86780 4584 ft 276 kts 231°
2026-05-05 01:51 11.99598 121.85210 4236 ft 276 kts 232°
2026-05-05 01:52 11.98465 121.83614 3903 ft 274 kts 232°
2026-05-05 01:52 11.97356 121.82024 3779 ft 272 kts 233°
2026-05-05 01:52 11.96263 121.80446 3771 ft 274 kts 233°
2026-05-05 01:52 11.95170 121.78861 3761 ft 268 kts 233°
2026-05-05 01:53 11.94103 121.77312 3764 ft 263 kts 233°
2026-05-05 01:53 11.93058 121.75796 3767 ft 263 kts 233°
2026-05-05 01:53 11.91818 121.74447 3747 ft 258 kts 208°
2026-05-05 01:53 11.90132 121.73882 3761 ft 249 kts 178°
2026-05-05 01:54 11.88461 121.74185 3770 ft 240 kts 151°
2026-05-05 01:54 11.86965 121.74952 3787 ft 241 kts 147°
2026-05-05 01:54 11.85475 121.75769 3781 ft 240 kts 145°
2026-05-05 01:54 11.84276 121.76870 3738 ft 229 kts 114°
2026-05-05 01:55 11.84028 121.78418 3735 ft 217 kts 79°
2026-05-05 01:55 11.84522 121.79813 3634 ft 202 kts 65°
2026-05-05 01:55 11.85203 121.81100 3054 ft 211 kts 62°
2026-05-05 01:55 11.85907 121.82392 2680 ft 207 kts 63°
2026-05-05 01:56 11.86564 121.83661 2422 ft 198 kts 63°
2026-05-05 01:56 11.87178 121.84885 2168 ft 190 kts 64°
2026-05-05 01:56 11.87764 121.86063 1940 ft 178 kts 64°
2026-05-05 01:56 11.88303 121.87141 1690 ft 162 kts 64°
2026-05-05 01:57 11.88796 121.88129 1488 ft 153 kts 63°
2026-05-05 01:57 11.89262 121.89058 1261 ft 138 kts 64°
2026-05-05 01:57 11.89693 121.89918 1124 ft 136 kts 64°
2026-05-05 01:57 11.90122 121.90774 942 ft 135 kts 64°
2026-05-05 01:58 11.90553 121.91633 764 ft 135 kts 64°
2026-05-05 01:58 11.90986 121.92493 576 ft 135 kts 64°
2026-05-05 01:58 11.91409 121.93337 415 ft 135 kts 64°
2026-05-05 01:58 11.91865 121.94186 177 ft 134 kts 65°
2026-05-05 01:59 11.92279 121.95042 34 ft 134 kts 65°
2026-05-05 01:59 11.92649 121.95785 43 ft 81 kts 62°
2026-05-05 01:59 11.92807 121.96095 56 ft 34 kts 63°
2026-05-05 01:59 11.92895 121.96272 62 ft 21 kts 63°
2026-05-05 02:00 11.92951 121.96385 64 ft 11 kts 63°
2026-05-05 02:00 11.92963 121.96436 64 ft 7 kts 116°
2026-05-05 02:00 11.92919 121.96474 64 ft 9 kts 147°